Bei Facebook empfehlenBei Twitter postenGoogle plusPinterest

Das Wetter im Erzgebirge am 25.11.2015

Wetter und Klima am 25.11.2015 Holzhau im Erzgebirge (630m ü.NN)
Letzte gemessene Temperatur und Uhrzeit der Messung23:45:00 Uhr-0.10 °C
Temperatur (Maximum / Höchstwert) und Uhrzeit der Messung14:30:00 Uhr0.90 °C
Temperatur (Minimum / Tiefstwert) und Uhrzeit der Messung00:00:00-3.10 °C
Errechneter Absolutwert der Temperaturschwankungen zwischen Tmin und Tmax des Tages4.00 K
Errechnete Tagesmitteltemperatur-1.00625 °C
Gesamt - Niederschlag des Tages (in flüssiger Form)0.00 Liter / m²
Luftdruck (Maximum / Höchstwert) und Zeitpunkt der Messung00:15:00 Uhr1007.90 hPa
Luftdruck (Minimum / Tiefstwert) und Zeitpunkt der Messung15:00:00 Uhr1001.10 hPa
Errechneter Absolutwert der Luftdruckschwankungen des Tages6.80 hPa
Höchste gemessene Windgeschwindigkeit und Uhrzeit der Messung02:00:00 Uhr11.16 km/h
Errechnete Windhäufigkeit in Relation zu den Messwerten des Tages22.91667 %
Niedrigste Windkühle (Windchill) und Zeitpunkt der Messung02:00:00 Uhr-6.60 °C
Taupunkt (Maximum / Höchstwert) und Uhrzeit der Messung14:15:00 Uhr-0.70 °C
Taupunkt (Minimum / Tiefstwert) und Uhrzeit der Messung00:00:00-4.70 °C
Anzahl der automatisch eingelesenen Messwerte 96

Detaillierte Wetter- und Klima- Messwerte für den 25.11.2015 in Holzhau im Erzgebirge (630m ü.NN)
ZeitTemperaturLuftdruckRel. LuftfeuchteWindWindrichtungWindchillTaupunktNiederschlag l/m²
23:45:00-0.10 °C1002.30 hPa92.00 %-1.40 °C 
23:30:00-0.10 °C1002.00 hPa92.00 %-1.40 °C 
23:15:00-0.10 °C1002.10 hPa92.00 %-1.40 °C 
23:00:00-0.10 °C1001.80 hPa92.00 %-1.40 °C 
22:45:00-0.20 °C1001.70 hPa92.00 %-1.50 °C 
22:30:00-0.10 °C1001.70 hPa92.00 %-1.40 °C 
22:15:00-0.10 °C1001.80 hPa92.00 %-1.40 °C 
22:00:00-0.10 °C1001.80 hPa92.00 %-1.40 °C 
21:45:00-0.10 °C1001.80 hPa92.00 %-1.40 °C 
21:30:00-0.10 °C1001.70 hPa92.00 %-1.40 °C 
21:15:00-0.10 °C1001.80 hPa92.00 %-1.40 °C 
21:00:00-0.10 °C1001.60 hPa92.00 %-1.40 °C 
20:45:00-0.10 °C1001.50 hPa92.00 %-1.40 °C 
20:30:00-0.10 °C1001.70 hPa91.00 %-1.50 °C 
20:15:00-0.10 °C1001.70 hPa91.00 %-1.50 °C 
20:00:00-0.10 °C1001.50 hPa91.00 %-1.50 °C 
19:45:00-0.10 °C1001.60 hPa91.00 %-1.50 °C 
19:30:00-0.10 °C1001.60 hPa91.00 %-1.50 °C 
19:15:00-0.10 °C1001.60 hPa91.00 %-1.50 °C 
19:00:00-0.10 °C1001.50 hPa91.00 %-1.50 °C 
18:45:00-0.10 °C1001.60 hPa91.00 %-1.50 °C 
18:30:00-0.20 °C1001.60 hPa91.00 %-1.60 °C 
18:15:00-0.20 °C1001.60 hPa90.00 %-1.80 °C 
18:00:00-0.20 °C1001.30 hPa90.00 %-1.80 °C 
17:45:00-0.30 °C1001.40 hPa90.00 %-1.90 °C 
17:30:00-0.40 °C1001.50 hPa90.00 %-2.00 °C 
17:15:00-0.40 °C1001.50 hPa90.00 %-2.00 °C 
17:00:00-0.40 °C1001.50 hPa90.00 %-2.00 °C 
16:45:00-0.40 °C1001.40 hPa89.00 %-2.20 °C 
16:30:00-0.20 °C1001.40 hPa89.00 %-2.00 °C 
16:15:00-0.10 °C1001.30 hPa89.00 %-1.90 °C 
16:00:000.10 °C1001.20 hPa89.00 %-1.50 °C 
15:45:000.20 °C1001.20 hPa89.00 %-1.40 °C 
15:30:000.40 °C1001.40 hPa89.00 %-1.20 °C 
15:15:000.60 °C1001.40 hPa89.00 %-1.00 °C 
15:00:000.70 °C1001.10 hPa89.00 %-0.90 °C 
14:45:000.70 °C1001.30 hPa88.00 %-1.10 °C 
14:30:000.90 °C1001.20 hPa88.00 %-0.90 °C 
14:15:000.90 °C1001.40 hPa89.00 %-0.70 °C 
14:00:000.80 °C1001.50 hPa89.00 %-0.80 °C 
13:45:000.90 °C1001.40 hPa89.00 %-0.70 °C 
13:30:000.90 °C1001.60 hPa89.00 %-0.70 °C 
13:15:000.90 °C1001.70 hPa89.00 %-0.70 °C 
13:00:000.90 °C1001.70 hPa89.00 %-0.70 °C 
12:45:000.60 °C1001.70 hPa89.00 %-1.00 °C 
12:30:000.60 °C1002.00 hPa89.00 %2.88 km/hWSW0.60 °C-1.00 °C 
12:15:000.80 °C1002.10 hPa89.00 %-0.80 °C 
12:00:000.60 °C1002.30 hPa90.00 %3.96 km/hSO0.60 °C-0.80 °C 
11:45:000.00 °C1002.40 hPa90.00 %-1.60 °C 
11:30:00-0.10 °C1002.50 hPa90.00 %4.68 km/hSSW-0.10 °C-1.70 °C 
11:15:00-0.20 °C1002.40 hPa90.00 %2.52 km/hSSW-0.20 °C-1.80 °C 
11:00:00-0.40 °C1002.40 hPa90.00 %2.88 km/hSSW-0.40 °C-2.00 °C 
10:45:00-0.60 °C1002.40 hPa90.00 %-2.20 °C 
10:30:00-0.70 °C1002.40 hPa91.00 %7.56 km/hSSW-3.40 °C-2.10 °C 
10:15:00-0.70 °C1002.50 hPa91.00 %-2.10 °C 
10:00:00-0.90 °C1002.70 hPa91.00 %2.16 km/hSSW-0.90 °C-2.30 °C 
09:45:00-1.10 °C1002.80 hPa91.00 %-2.50 °C 
09:30:00-1.40 °C1003.00 hPa91.00 %3.96 km/hSSW-1.40 °C-2.80 °C 
09:15:00-1.60 °C1002.80 hPa91.00 %3.60 km/hSSW-1.60 °C-3.00 °C 
09:00:00-1.80 °C1002.70 hPa91.00 %-3.20 °C 
08:45:00-1.90 °C1002.80 hPa91.00 %-3.30 °C 
08:30:00-2.10 °C1003.20 hPa91.00 %-3.50 °C 
08:15:00-2.10 °C1003.20 hPa91.00 %-3.50 °C 
08:00:00-2.20 °C1003.00 hPa91.00 %1.44 km/hSSW-2.20 °C-3.60 °C 
07:45:00-2.40 °C1002.80 hPa91.00 %-3.80 °C 
07:30:00-2.40 °C1002.60 hPa91.00 %1.08 km/hSSW-2.40 °C-3.80 °C 
07:15:00-2.40 °C1002.60 hPa90.00 %4.68 km/hSSW-2.40 °C-4.00 °C 
07:00:00-2.40 °C1003.00 hPa90.00 %-4.00 °C 
06:45:00-2.50 °C1003.20 hPa90.00 %3.60 km/hSSW-2.50 °C-4.10 °C 
06:30:00-2.60 °C1002.90 hPa90.00 %5.40 km/hSSW-4.70 °C-4.20 °C 
06:15:00-2.70 °C1003.10 hPa90.00 %-4.30 °C 
06:00:00-2.70 °C1003.40 hPa90.00 %-4.30 °C 
05:45:00-2.70 °C1003.50 hPa90.00 %-4.30 °C 
05:30:00-2.70 °C1003.40 hPa90.00 %-4.30 °C 
05:15:00-2.80 °C1003.80 hPa90.00 %-4.40 °C 
05:00:00-2.70 °C1004.00 hPa90.00 %-4.30 °C 
04:45:00-2.70 °C1004.20 hPa90.00 %-4.30 °C 
04:30:00-2.70 °C1004.30 hPa90.00 %-4.30 °C 
04:15:00-2.70 °C1004.40 hPa90.00 %-4.30 °C 
04:00:00-2.70 °C1004.40 hPa90.00 %-4.30 °C 
03:45:00-2.80 °C1004.60 hPa90.00 %-4.40 °C 
03:30:00-3.00 °C1004.70 hPa90.00 %-4.60 °C 
03:15:00-2.90 °C1005.00 hPa90.00 %-4.50 °C 
03:00:00-2.80 °C1005.10 hPa90.00 %4.32 km/hSSW-2.80 °C-4.40 °C 
02:45:00-2.70 °C1005.40 hPa90.00 %-4.30 °C 
02:30:00-2.60 °C1005.80 hPa90.00 %2.88 km/hSSW-2.60 °C-4.20 °C 
02:15:00-2.60 °C1005.80 hPa90.00 %-4.20 °C 
02:00:00-2.50 °C1005.90 hPa90.00 %11.16 km/hSSW-6.60 °C-4.10 °C 
01:45:00-2.50 °C1006.10 hPa90.00 %2.16 km/hSSW-2.50 °C-4.10 °C 
01:30:00-2.50 °C1006.20 hPa90.00 %5.04 km/hSSW-4.40 °C-4.10 °C 
01:15:00-2.60 °C1006.60 hPa90.00 %-4.20 °C 
01:00:00-2.60 °C1006.90 hPa90.00 %-4.20 °C 
00:45:00-2.70 °C1007.10 hPa90.00 %3.24 km/hSSW-2.70 °C-4.30 °C 
00:30:00-2.70 °C1007.40 hPa90.00 %5.04 km/hSSW-4.70 °C-4.30 °C 
00:15:00-2.90 °C1007.90 hPa90.00 %7.56 km/hSSW-6.00 °C-4.50 °C 
00:00:00-3.10 °C1007.90 hPa90.00 %-4.70 °C 

Permanenter Link zu dieser Seite: Wetter im Erzgebirge am 25.11.2015
Performance-Info: Die Erstellung der Seite / Statistik(en) / Tabelle(n) erforderte 5 Datenbankserver-Abfrage(n) und dauerte 97 Millisekunden. (Dieser Messwert ist von der Gesamt-Auslastung des Servers abhängig.)
Erzgebirge - Wetter | Erzgebirge - Wetter (Mobilgeräte) | Komplette Klimadatenbank